George/Botha, South Africa

6:20 PM SAST on March 26, 2017 (GMT +0200)
George/Botha

Weather History for 68828 - August, 2013

Change the Weather History Date:

Tuesday, August 20, 2013

  Actual Average Record
Temperature  
Mean Temperature 60 °F -  
Max Temperature 75 °F 64 °F - ()
Min Temperature 44 °F 46 °F - ()
Degree Days  
Heating Degree Days 6    
Growing Degree Days 10 (Base 50)    
Moisture  
Dew Point 39 °F    
Average Humidity 53    
Maximum Humidity 82    
Minimum Humidity 16    
Precipitation  
Precipitation 0.00 in - - ()
Sea Level Pressure  
Sea Level Pressure 29.99 in    
Wind  
Wind Speed 4 mph ()    
Max Wind Speed 12 mph    
Max Gust Speed -    
Visibility 14.2 miles    
Events      
T = Trace of Precipitation, MM = Missing Value Source: Averaged Metar Reports

Daily Weather History Graph

Daily Weather History Graph

Search for Another Location

Airport or City:

Trip Planner

Search our weather history database for the weather conditions in past years. The results will help you decide how hot, cold, wet, or windy it might be!

Date:

Astronomy

Aug. 20, 2013 Rise Set
Actual Time 7:03 AM SAST 6:04 PM SAST
Civil Twilight 6:38 AM SAST 6:29 PM SAST
Nautical Twilight 6:09 AM SAST 6:59 PM SAST
Astronomical Twilight 5:39 AM SAST 7:28 PM SAST
Moon 5:39 PM SAST (8/20) 6:10 AM SAST (8/20)
Length of Visible Light 11h 51m
Length of Day
11h 00m
Waxing Gibbous, 99% of the Moon is Illuminated
Aug 20
Waxing Gibbous
Aug 21
Full
Aug 28
Last Quarter
Sep 5
New
Sep 12
First Quarter

Hourly Weather History & Observations

Time (SAST) Temp. Windchill Dew Point Humidity Pressure Visibility Wind Dir Wind Speed Gust Speed Precip Events Conditions
12:00 AM 48.2 °F - 37.4 °F 66% 30.12 in - North 3.5 mph - N/A   Clear
1:00 AM 46.4 °F 45.2 °F 37.4 °F 71% 30.12 in - NW 3.5 mph - N/A   Clear
2:00 AM 48 °F - 36 °F 53% 30.12 in 25 mi North 3.5 mph - -  
2:00 AM 48.2 °F - 35.6 °F 62% 30.09 in - North 4.6 mph - N/A   Clear
3:00 AM 46.4 °F 43.5 °F 33.8 °F 62% 30.06 in - NNE 5.8 mph - N/A   Clear
4:00 AM 50.0 °F - 33.8 °F 54% 30.04 in - North 3.5 mph - N/A   Clear
5:00 AM 49 °F - 33 °F 43% 30.05 in 19 mi NNE 3.5 mph - -  
5:00 AM 48.2 °F - 33.8 °F 58% 30.04 in - NNE 2.3 mph - N/A   Clear
6:00 AM 44.6 °F 42.2 °F 33.8 °F 66% 30.01 in - NW 4.6 mph - N/A   Clear
7:00 AM 51.8 °F - 30.2 °F 44% 30.01 in - NNW 3.5 mph - N/A   Clear
8:00 AM 53 °F - 32 °F 32% 30.04 in 19 mi North 3.5 mph - -   Clear
8:00 AM 53.6 °F - 32.0 °F 44% 30.04 in - North 3.5 mph - N/A   Clear
9:00 AM 62.6 °F - 37.4 °F 39% 30.01 in - Variable 1.2 mph - N/A   Clear
10:00 AM 68.0 °F - 39.2 °F 35% 30.01 in - SSW 3.5 mph - N/A   Clear
11:00 AM 71 °F - 35 °F 16% 30.00 in 19 mi SW 4.6 mph - -   Clear
11:00 AM 71.6 °F - 35.6 °F 27% 30.01 in - SW 3.5 mph - N/A   Clear
12:00 PM 71.6 °F - 35.6 °F 27% 29.98 in - WSW 4.6 mph - N/A   Clear
1:00 PM 71.6 °F - 37.4 °F 29% 29.95 in - SSW 10.4 mph - N/A   Clear
2:00 PM 64 °F - 47 °F 43% 29.94 in 12 mi SSW 11.5 mph - -   Clear
2:00 PM 64.4 °F - 46.4 °F 52% 29.95 in - SSW 10.4 mph - N/A   Clear
3:00 PM 62.6 °F - 46.4 °F 55% 29.92 in - SSW 6.9 mph - N/A   Clear
4:00 PM 60.8 °F - 48.2 °F 63% 29.92 in - SSW 4.6 mph - N/A   Clear
5:00 PM 60 °F - 45 °F 46% 29.93 in 12 mi 3.5 mph - -   Clear
5:00 PM 60.8 °F - 44.6 °F 55% 29.92 in - South 2.3 mph - N/A   Clear
6:00 PM 57.2 °F - 44.6 °F 63% 29.92 in - North 3.5 mph - N/A   Clear
7:00 PM 55.4 °F - 44.6 °F 67% 29.92 in - North 3.5 mph - N/A   Clear
8:00 PM 52 °F - 43 °F 63% 29.93 in 12 mi NNE 4.6 mph - -   Scattered Clouds
8:00 PM 51.8 °F - 42.8 °F 71% 29.92 in - NNE 4.6 mph - N/A   Clear
9:00 PM 53.6 °F - 44.6 °F 72% 29.92 in - NNE 3.5 mph - N/A   Clear
10:00 PM 50.0 °F - 41.0 °F 71% 29.92 in - WSW 4.6 mph - N/A   Clear
11:00 PM 50.0 °F - 44.6 °F 82% 29.92 in 6.2 mi NNW 8.1 mph - N/A   Mostly Cloudy